Forks, WA

11:49 PM PST on January 18, 2017 (GMT -0800)
Quillayute

Weather History for KUIL - May, 2014

Change the Weather History Date:

Monday, May 19, 2014

  Actual Average Record
Temperature  
Mean Temperature 56 °F 52 °F  
Max Temperature 65 °F 60 °F 86 °F (1978)
Min Temperature 47 °F 44 °F 33 °F (1998)
Degree Days  
Heating Degree Days 9 13  
Month to date heating degree days 189 278  
Since 1 July heating degree days 4471 5320  
Cooling Degree Days 0 0  
Month to date cooling degree days 2 0  
Year to date cooling degree days 4 0  
Growing Degree Days 5 (Base 50)    
Moisture  
Dew Point 49 °F    
Average Humidity 78    
Maximum Humidity 100    
Minimum Humidity 56    
Precipitation  
Precipitation 0.00 in 0.15 in 1.99 in (1984)
Month to date precipitation 3.21 3.30  
Year to date precipitation 51.49 46.94  
Sea Level Pressure  
Sea Level Pressure 29.99 in    
Wind  
Wind Speed 5 mph (NNE)    
Max Wind Speed 14 mph    
Max Gust Speed 18 mph    
Visibility 4 miles    
Events Fog    
T = Trace of Precipitation, MM = Missing Value Source: NWS Daily Summary

Daily Weather History Graph

Daily Weather History Graph

Search for Another Location

Airport or City:

Trip Planner

Search our weather history database for the weather conditions in past years. The results will help you decide how hot, cold, wet, or windy it might be!

Date:

Astronomy

May. 19, 2014 Rise Set
Actual Time 5:34 AM PDT 8:55 PM PDT
Civil Twilight 4:57 AM PDT 9:33 PM PDT
Nautical Twilight 4:07 AM PDT 10:23 PM PDT
Astronomical Twilight 3:03 AM PDT 11:28 PM PDT
Moon 12:40 AM PDT 10:46 AM PDT
Length of Visible Light 16h 36m
Length of Day
15h 20m
Waning Gibbous, 70% of the Moon is Illuminated
May 19
Waning Gibbous
May 21
Last Quarter
May 28
New
Jun 5
First Quarter
Jun 12
Full

Hourly Weather History & Observations

Time (PDT) Temp. Dew Point Humidity Pressure Visibility Wind Dir Wind Speed Gust Speed Precip Events Conditions
12:29 AM 48.0 °F 48.0 °F 100% 29.91 in 1.5 mi Calm Calm - N/A   Partly Cloudy
12:36 AM 48.0 °F 46.9 °F 96% 29.91 in 1.0 mi Calm Calm - N/A   Mostly Cloudy
12:42 AM 46.9 °F 46.9 °F 100% 29.91 in 2.0 mi Calm Calm - N/A   Mostly Cloudy
12:49 AM 48.2 °F 48.2 °F 100% 29.91 in 6.0 mi Calm Calm - N/A   Mostly Cloudy
12:53 AM 48.9 °F 48.0 °F 97% 29.91 in 6.0 mi Calm Calm - N/A   Mostly Cloudy
1:41 AM 48.9 °F 48.9 °F 100% 29.92 in 1.8 mi East 4.6 mph - N/A   Overcast
1:48 AM 48.2 °F 48.2 °F 100% 29.92 in 0.8 mi East 4.6 mph - N/A   Overcast
1:49 AM 48.9 °F 48.9 °F 100% 29.92 in 0.8 mi East 4.6 mph - N/A   Overcast
1:58 AM 48.9 °F 48.9 °F 100% 29.91 in 1.5 mi East 4.6 mph - N/A   Overcast
2:08 AM 48.9 °F 48.9 °F 100% 29.92 in 2.0 mi ENE 3.5 mph - N/A   Overcast
2:30 AM 48.0 °F 48.0 °F 100% 29.92 in 5.0 mi Calm Calm - N/A   Mostly Cloudy
2:40 AM 48.0 °F 48.0 °F 100% 29.92 in 1.8 mi East 4.6 mph - N/A   Mostly Cloudy
2:43 AM 48.0 °F 48.0 °F 100% 29.92 in 0.8 mi East 5.8 mph - N/A   Mist
2:53 AM 48.0 °F 48.0 °F 100% 29.93 in 0.2 mi NE 3.5 mph - N/A Fog Fog
3:25 AM 48.0 °F 48.0 °F 100% 29.93 in 0.5 mi East 3.5 mph - N/A Fog Fog
3:53 AM 48.0 °F 48.0 °F 100% 29.93 in 0.8 mi East 3.5 mph - N/A   Mist
4:14 AM 48.0 °F 48.0 °F 100% 29.93 in 0.2 mi ENE 3.5 mph - N/A Fog Fog
4:53 AM 48.0 °F 48.0 °F 100% 29.94 in 0.5 mi Variable 4.6 mph - N/A Fog Fog
5:24 AM 46.9 °F 46.9 °F 100% 29.94 in 1.0 mi ENE 3.5 mph - N/A   Overcast
5:45 AM 48.0 °F 48.0 °F 100% 29.95 in 0.5 mi East 3.5 mph - N/A Fog Fog
6:33 AM 46.9 °F 46.9 °F 100% 29.96 in 1.5 mi NE 3.5 mph - N/A   Overcast
6:36 AM 48.0 °F 48.0 °F 100% 29.96 in 3.0 mi NE 3.5 mph - N/A   Overcast
6:53 AM 48.0 °F 46.9 °F 96% 29.96 in 4.0 mi NE 4.6 mph - N/A   Overcast
7:53 AM 51.1 °F 50.0 °F 96% 29.98 in 7.0 mi East 3.5 mph - N/A   Partly Cloudy
8:53 AM 55.9 °F 52.0 °F 87% 29.99 in 7.0 mi Calm Calm - N/A   Clear
9:53 AM 60.1 °F 50.0 °F 69% 30.00 in 7.0 mi Calm Calm - N/A   Scattered Clouds
10:00 AM 59.0 °F 50.0 °F 72% 30.00 in 7.0 mi Variable 4.6 mph - N/A   Mostly Cloudy
10:41 AM 57.9 °F 50.0 °F 75% 30.01 in 6.0 mi WSW 6.9 mph - N/A   Haze
10:53 AM 59.0 °F 48.2 °F 67% 30.01 in 7.0 mi Variable 4.6 mph - N/A   Overcast
11:13 AM 57.9 °F 50.0 °F 75% 30.02 in 7.0 mi WNW 9.2 mph - N/A   Overcast
11:28 AM 59.0 °F 51.1 °F 75% 30.02 in 6.0 mi West 8.1 mph - N/A   Haze
11:53 AM 59.0 °F 50.0 °F 72% 30.03 in 7.0 mi West 9.2 mph - N/A   Overcast
12:53 PM 63.0 °F 51.1 °F 65% 30.04 in 7.0 mi Variable 5.8 mph - N/A   Overcast
1:34 PM 64.0 °F 52.0 °F 65% 30.04 in 7.0 mi West 11.5 mph - N/A   Mostly Cloudy
1:53 PM 62.1 °F 51.1 °F 67% 30.04 in 7.0 mi WNW 8.1 mph - N/A   Scattered Clouds
2:53 PM 64.0 °F 51.1 °F 63% 30.04 in 7.0 mi NW 6.9 mph - N/A   Clear
3:53 PM 62.1 °F 48.9 °F 62% 30.05 in 7.0 mi WNW 10.4 mph - N/A   Partly Cloudy
4:53 PM 62.1 °F 48.0 °F 60% 30.05 in 7.0 mi West 11.5 mph - N/A   Clear
5:53 PM 62.1 °F 46.9 °F 58% 30.06 in 7.0 mi WNW 10.4 mph - N/A   Clear
6:53 PM 60.1 °F 48.9 °F 67% 30.06 in 7.0 mi WNW 8.1 mph - N/A   Clear
7:53 PM 55.9 °F 50.0 °F 80% 30.08 in 6.0 mi NW 8.1 mph - N/A   Haze
8:48 PM 53.6 °F 50.0 °F 88% 30.08 in 6.0 mi NW 5.8 mph - N/A   Mostly Cloudy
8:53 PM 54.0 °F 50.0 °F 86% 30.09 in 6.0 mi NNW 3.5 mph - N/A   Mostly Cloudy
9:53 PM 54.0 °F 50.0 °F 86% 30.09 in 6.0 mi NNW 3.5 mph - N/A   Overcast
10:53 PM 53.6 °F 48.2 °F 82% 30.09 in 7.0 mi Calm Calm - N/A   Overcast
11:41 PM 53.1 °F 48.9 °F 86% 30.10 in 7.0 mi North 3.5 mph - N/A   Overcast
11:53 PM 53.1 °F 48.9 °F 86% 30.11 in 7.0 mi NNW 4.6 mph - N/A   Overcast